Location: Kerb�bon
(47.7970°N, 3.3487°W)
Time: 11:38:35
(UTC+00:00)

USA 186 - Pass Details

Date: 12 May 2021
Orbit: 266 x 448 km, 96.9° (Epoch: 17 June)

Event Time Altitude Azimuth Distance (km) Brightness Sun altitude
Rises 19:08:13 0° 142° (SE) 2,008 4.7 4.1°
Reaches altitude 10° 19:10:19 10° 126° (SE) 1,158 3.4 3.8°
Maximum altitude 19:12:18 22° 72° (ENE) 702 2.5 3.5°
Drops below altitude 10° 19:14:13 10° 17° (NNE) 1,122 4.0 3.2°
Enters shadow 20:06:52 -71° 169° (S) 12,516 9.1 -4.5°
Exits shadow 20:37:21 -7° 197° (SSW) 2,958 5.8 -8.6°
Sets 20:46:55 0° 325° (NW) 1,932 7.0 -9.8°
